Flag for Germany Weather past 2 weeks in Marburg, Hesse, Germany

Now
46 °F

Overcast.


Feels Like: 41 °F
Forecast: 46 / 50 °F
Wind: 12 mph from Southwest

Location: Giessen

Current Time: Dec 22, 2014 at 4:22:29 PM

Latest Report: Dec 22, 2014 at 4:00 PM


Visibility: 31 mi

Pressure: 30.14 "Hg

Humidity: 88%

Dew point: 43 °F

Location of MarburgLocation

Historic Weather in Marburg — Graph

°F

Marburg temperature yesterday

Maximum temperature yesterday: 44 °F (at 9:00 PM)
Minimum temperature yesterday: 38 °F (at 3:00 AM)
Average temperature yesterday: 41 °F

Past Weeks' High & Low Weather Summary

 TemperatureHumidityPressure
High54 °F (Dec 18, 9:00 PM)100% (Dec 7, 11:00 PM)30.45 "Hg (Dec 7, 11:00 PM)
Low27 °F (Dec 9, 3:00 AM)73% (Dec 7, 3:00 PM)29.54 "Hg (Dec 12, 6:00 PM)
Average40 °F94%30.03 "Hg
* Reported Dec 7 3:00 PM — Dec 22 3:00 PM, Marburg, Weather by CustomWeather, © 2014

Note: Actual official high and low records may vary slightly from our data, if they occured in-between our weather recording intervals... More about our weather records

Advertising

Marburg weather history for previous 24 hours

 ConditionsComfort  
Time TempWeatherWind HumidityBarometerVisibility
3:00 PM
Dec 22
46 °FOvercast.10 mph88%30.13 "Hg25 mi
2:00 PM45 °FLow clouds.13 mph88%30.15 "Hg25 mi
1:00 PM45 °FLow clouds.13 mph90%30.16 "Hg19 mi
12:00 PM45 °FLow clouds.13 mph91%30.19 "Hg16 mi
11:00 AM45 °FOvercast.13 mph90%30.19 "Hg28 mi
10:00 AM44 °FLow clouds.12 mph92%30.19 "Hg19 mi
9:00 AM44 °FLow clouds.13 mph93%30.19 "Hg25 mi
8:00 AM44 °FLow clouds.13 mph91%30.19 "Hg37 mi
7:00 AM44 °FRain. Low clouds.10 mph90%30.18 "Hg12 mi
6:00 AM44 °FOvercast.9 mph89%30.19 "Hg31 mi
5:00 AM44 °FOvercast.10 mph88%30.21 "Hg43 mi
4:00 AM44 °FLow clouds.10 mph89%30.23 "Hg28 mi
3:00 AM44 °FOvercast.10 mph87%30.24 "Hg37 mi
2:00 AM43 °FLow clouds.8 mph91%30.25 "Hg37 mi
1:00 AM42 °FLow clouds.8 mph97%30.27 "Hg6 mi
12:00 AM43 °FLow clouds.10 mph90%30.27 "Hg25 mi
11:00 PM
Dec 21
44 °FOvercast.12 mph88%30.27 "Hg43 mi
10:00 PM43 °FLow clouds.10 mph90%30.28 "Hg16 mi
9:00 PM44 °FLow clouds.10 mph87%30.30 "Hg31 mi
8:00 PM43 °FLow clouds.8 mph89%30.31 "Hg22 mi
7:00 PM43 °FLight rain. Low clouds.7 mph88%30.33 "Hg17 mi
6:00 PM43 °FLow clouds.8 mph87%30.33 "Hg25 mi
5:00 PM42 °FOvercast.8 mph88%30.33 "Hg25 mi
4:00 PM42 °FDrizzle. Low clouds.8 mph87%30.36 "Hg22 mi
Weather by CustomWeather, © 2014

See weather overviewHow to use our weather pages